Location: Black Forest
(43.4794°N, 75.0081°W)
Time: 03:25:52
(UTC-05:00)

ISS - All Passes

Search period start: 22 January 2018 00:00
Search period end: 01 February 2018 00:00
Orbit: 402 x 407 km, 51.6° (Epoch: 22 January)

Date Brightness Start Highest point End Pass type
(mag) Time Alt. Az. Time Alt. Az. Time Alt. Az.
22 Jan - 01:04:29 10° NW 01:07:23 28° NNE 01:10:17 10° E night (unlit)
22 Jan - 02:40:48 10° WNW 02:44:03 60° SW 02:47:16 10° SE night (unlit)
22 Jan - 19:21:51 10° S 19:24:23 21° SE 19:26:56 10° E visible
22 Jan - 20:57:26 10° WSW 21:00:38 53° NNW 21:03:51 10° NE night (unlit)
22 Jan - 22:35:05 10° WNW 22:37:38 21° N 22:40:12 10° NE night (unlit)
23 Jan - 00:12:12 10° NW 00:14:53 23° NNE 00:17:34 10° ENE night (unlit)
23 Jan - 01:48:29 10° NW 01:51:46 76° NNE 01:55:02 10° ESE night (unlit)
23 Jan - 03:25:59 10° W 03:27:51 14° SW 03:29:43 10° SSW night (unlit)
23 Jan - 18:31:07 10° SSE 18:32:18 12° SE 18:33:30 10° ESE visible
23 Jan - 20:05:02 10° SW 20:08:18 89° SSE 20:11:35 10° ENE visible
23 Jan - 21:42:22 10° WNW 21:45:06 24° NNW 21:47:51 10° NE night (unlit)
23 Jan - 23:19:51 10° NW 23:22:21 20° N 23:24:52 10° NE night (unlit)
24 Jan - 00:56:13 10° NW 00:59:23 46° NNE 01:02:34 10° E night (unlit)
24 Jan - 02:32:57 10° WNW 02:35:44 26° SW 02:38:31 10° SSE night (unlit)
24 Jan - 19:12:53 10° SW 19:16:02 48° SE 19:19:11 10° ENE visible
24 Jan - 20:49:38 10° W 20:52:36 31° NNW 20:55:35 10° NE night (unlit)
24 Jan - 22:27:20 10° NW 22:29:47 19° N 22:32:14 10° NE night (unlit)
25 Jan - 00:03:58 10° NW 00:06:57 31° NNE 00:09:56 10° E night (unlit)
25 Jan - 01:40:22 10° WNW 01:43:32 48° SW 01:46:42 10° SE night (unlit)
25 Jan - 18:21:02 10° SSW 18:23:49 26° SE 18:26:36 10° ENE visible
25 Jan - 19:57:00 10° W 20:00:09 45° NNW 20:03:20 10° NE visible
25 Jan - 21:34:42 10° NW 21:37:12 20° N 21:39:43 10° NE night (unlit)
25 Jan - 23:11:41 10° NW 23:14:27 24° NNE 23:17:12 10° ENE night (unlit)
26 Jan - 00:47:58 10° WNW 00:51:14 88° SW 00:54:31 10° SE night (unlit)
26 Jan - 02:26:03 10° WSW 02:27:14 12° SW 02:28:26 10° SSW night (unlit)
26 Jan - 17:29:49 10° SSE 17:31:40 14° SE 17:33:32 10° E visible
26 Jan - 19:04:30 10° WSW 19:07:45 76° NNW 19:11:01 10° NE visible
26 Jan - 20:41:57 10° WNW 20:44:37 23° NNW 20:47:18 10° NE visible
26 Jan - 22:19:19 10° NW 22:21:53 21° N 22:24:26 10° ENE night (unlit)
26 Jan - 23:55:38 10° NW 23:58:52 54° NNE 00:02:05 10° ESE night (unlit)
27 Jan - 01:32:33 10° W 01:35:07 21° SW 01:37:40 10° S night (unlit)
27 Jan - 18:12:12 10° SW 18:15:25 60° SE 18:18:38 10° ENE visible
27 Jan - 19:49:11 10° W 19:52:04 28° NNW 19:54:58 10° NE visible
27 Jan - 21:26:49 10° NW 21:29:17 19° N 21:31:43 10° NE night (unlit)
27 Jan - 23:03:21 10° NW 23:06:24 35° NNE 23:09:27 10° E night (unlit)
28 Jan - 00:39:50 10° WNW 00:42:55 38° SW 00:45:58 10° SSE night (unlit)
28 Jan - 17:20:12 10° SSW 17:23:08 32° SE 17:26:06 10° ENE daylight
28 Jan - 18:56:28 10° W 18:59:33 39° NNW 19:02:40 10° NE visible
28 Jan - 20:34:11 10° NW 20:36:39 19° N 20:39:07 10° NE visible
28 Jan - 22:11:02 10° NW 22:13:52 26° NNE 22:16:42 10° ENE night (unlit)
28 Jan - 23:47:20 10° WNW 23:50:36 73° SW 23:53:51 10° SE night (unlit)
29 Jan - 16:28:40 10° S 16:30:56 18° SE 16:33:12 10° E daylight
29 Jan - 18:03:52 10° WSW 18:07:05 63° NNW 18:10:21 10° NE visible
29 Jan - 19:41:26 10° WNW 19:44:02 21° N 19:46:39 10° NE visible
29 Jan - 21:18:40 10° NW 21:21:17 21° N 21:23:54 10° ENE night (unlit)
29 Jan - 22:54:57 10° NW 22:58:12 64° NNE 23:01:28 10° ESE night (unlit)
30 Jan - 00:32:08 10° W 00:34:22 17° SW 00:36:36 10° S night (unlit)
30 Jan - 17:11:27 10° SW 17:14:41 74° SSE 17:17:57 10° ENE daylight
30 Jan - 18:48:37 10° WNW 18:51:25 26° NNW 18:54:15 10° NE visible
30 Jan - 20:26:10 10° NW 20:28:39 19° N 20:31:07 10° NE visible
30 Jan - 22:02:37 10° NW 22:05:44 40° NNE 22:08:50 10° E night (unlit)
30 Jan - 23:39:12 10° WNW 23:42:09 31° SW 23:45:04 10° SSE night (unlit)
31 Jan - 16:19:18 10° SSW 16:22:21 39° SE 16:25:26 10° ENE daylight
31 Jan - 17:55:49 10° W 17:58:52 34° NNW 18:01:54 10° NE visible
31 Jan - 19:33:33 10° NW 19:35:59 19° N 19:38:26 10° NE visible
31 Jan - 21:10:17 10° NW 21:13:11 28° NNE 21:16:05 10° E night (unlit)
31 Jan - 22:46:36 10° WNW 22:49:50 58° SW 22:53:03 10° SE night (unlit)
